Location: Wildlife_Club
(35.6000°N, 81.4330°W)
Time: 07:40:46
(UTC-04:00)

ISS - Pass Details

Date: 27 May 2019
Orbit: 408 x 418 km, 51.6° (Epoch: 18 June)

Event Time Altitude Azimuth Distance (km) Brightness Sun altitude
Rises 22:46:44 0° 327° (NNW) 2,356 1.5 -22.2°
Enters shadow 22:53:32 - 47° (NE) 2,273 0.0 -23.1°
Exits shadow 23:24:46 -62° 115° (ESE) 11,692 3.6 -26.7°
Drops below altitude 10° 00:23:06 -1° 323° (NW) 2,442 1.1 -31.4°
Sets 00:23:11 0° 324° (NW) 2,411 1.1 -31.4°
